TimePDT,TemperatureF,Dew PointF,Humidity,Sea Level PressureIn,VisibilityMPH,Wind Direction,Wind SpeedMPH,Gust SpeedMPH,PrecipitationIn,Events,Conditions,WindDirDegrees,DateUTC
12:00 AM,33.8,32.0,93,30.46,9.0,Calm,Calm,-,N/A,,Clear,0,2012-10-06 07:00:00
1:00 AM,32.0,30.2,93,30.46,9.0,Calm,Calm,-,N/A,,Clear,0,2012-10-06 08:00:00
2:00 AM,32.0,30.2,93,30.47,9.0,Calm,Calm,-,N/A,,Clear,0,2012-10-06 09:00:00
3:00 AM,32.0,30.2,93,30.47,9.0,Calm,Calm,-,N/A,,Clear,0,2012-10-06 10:00:00
3:45 AM,30.2,30.2,100,30.47,9.0,Calm,Calm,-,N/A,,Partly Cloudy,0,2012-10-06 10:45:00
4:00 AM,30.2,30.2,100,30.47,9.0,Calm,Calm,-,N/A,,Scattered Clouds,0,2012-10-06 11:00:00
4:05 AM,30.2,30.2,100,30.47,9.0,Calm,Calm,-,N/A,,Mostly Cloudy,0,2012-10-06 11:05:00
4:28 AM,30.2,30.2,100,30.47,4.0,Calm,Calm,-,N/A,,Mostly Cloudy,0,2012-10-06 11:28:00
4:29 AM,30.2,30.2,100,30.47,2.5,Calm,Calm,-,N/A,,Mostly Cloudy,0,2012-10-06 11:29:00
4:32 AM,30.2,30.2,100,30.47,1.0,South,2.3,-,N/A,,Scattered Clouds,190,2012-10-06 11:32:00
4:35 AM,30.2,30.2,100,30.47,1.0,Calm,Calm,-,N/A,,Mostly Cloudy,0,2012-10-06 11:35:00
4:41 AM,30.2,30.2,100,30.47,3.0,Calm,Calm,-,N/A,,Mostly Cloudy,0,2012-10-06 11:41:00
4:42 AM,30.2,30.2,100,30.47,7.0,Calm,Calm,-,N/A,,Mostly Cloudy,0,2012-10-06 11:42:00
4:56 AM,26.6,26.6,100,30.48,5.0,Calm,Calm,-,N/A,,Mostly Cloudy,0,2012-10-06 11:56:00
5:00 AM,28.4,28.4,100,30.48,4.0,Calm,Calm,-,N/A,,Mostly Cloudy,0,2012-10-06 12:00:00
5:05 AM,28.4,28.4,100,30.47,2.5,North,2.3,-,N/A,,Overcast,10,2012-10-06 12:05:00
5:13 AM,28.4,28.4,100,30.47,0.5,Calm,Calm,-,N/A,Fog,Light Freezing Fog,0,2012-10-06 12:13:00
5:26 AM,28.4,28.4,100,30.47,0.6,Calm,Calm,-,N/A,,Mist,0,2012-10-06 12:26:00
5:31 AM,28.4,28.4,100,30.47,4.0,Calm,Calm,-,N/A,,Mostly Cloudy,0,2012-10-06 12:31:00
5:32 AM,28.4,28.4,100,30.47,8.0,Calm,Calm,-,N/A,,Mostly Cloudy,0,2012-10-06 12:32:00
5:35 AM,28.4,28.4,100,30.47,5.0,Calm,Calm,-,N/A,,Mostly Cloudy,0,2012-10-06 12:35:00
5:37 AM,28.4,28.4,100,30.47,2.5,Calm,Calm,-,N/A,,Mostly Cloudy,0,2012-10-06 12:37:00
5:41 AM,28.4,28.4,100,30.46,1.8,Calm,Calm,-,N/A,,Scattered Clouds,0,2012-10-06 12:41:00
5:47 AM,28.4,28.4,100,30.47,3.0,Calm,Calm,-,N/A,,Scattered Clouds,0,2012-10-06 12:47:00
5:51 AM,28.4,28.4,100,30.47,6.0,Calm,Calm,-,N/A,,Partly Cloudy,0,2012-10-06 12:51:00
6:00 AM,28.4,28.4,100,30.47,9.0,Calm,Calm,-,N/A,,Clear,0,2012-10-06 13:00:00
6:11 AM,26.6,26.6,100,30.48,5.0,Calm,Calm,-,N/A,,Clear,0,2012-10-06 13:11:00
6:13 AM,26.6,26.6,100,30.48,1.8,Calm,Calm,-,N/A,,Clear,0,2012-10-06 13:13:00
6:15 AM,26.6,26.6,100,30.48,1.0,Calm,Calm,-,N/A,,Partly Cloudy,0,2012-10-06 13:15:00
6:20 AM,28.4,28.4,100,30.48,0.5,Calm,Calm,-,N/A,Fog,Light Freezing Fog,0,2012-10-06 13:20:00
6:24 AM,28.4,28.4,100,30.48,0.6,Calm,Calm,-,N/A,,Scattered Clouds,0,2012-10-06 13:24:00
6:25 AM,28.4,28.4,100,30.48,0.6,Calm,Calm,-,N/A,,Mostly Cloudy,0,2012-10-06 13:25:00
6:34 AM,28.4,28.4,100,30.48,0.5,Calm,Calm,-,N/A,Fog,Light Freezing Fog,0,2012-10-06 13:34:00
6:51 AM,28.4,28.4,100,30.49,0.8,Calm,Calm,-,N/A,,Mist,0,2012-10-06 13:51:00
6:54 AM,28.4,28.4,100,30.49,0.5,North,2.3,-,N/A,Fog,Light Freezing Fog,10,2012-10-06 13:54:00
7:00 AM,28.4,28.4,100,30.50,0.1,Calm,Calm,-,N/A,Fog,Light Freezing Fog,0,2012-10-06 14:00:00
8:00 AM,30.2,30.2,100,30.49,0.2,Calm,Calm,-,N/A,Fog,Light Freezing Fog,0,2012-10-06 15:00:00
9:00 AM,32.0,32.0,100,30.49,0.4,Variable,2.3,-,N/A,Fog,Light Freezing Fog,0,2012-10-06 16:00:00
9:03 AM,32.0,32.0,100,30.49,0.6,Variable,2.3,-,N/A,,Mostly Cloudy,0,2012-10-06 16:03:00
9:10 AM,32.0,32.0,100,30.49,3.0,NE,3.5,-,N/A,,Mostly Cloudy,40,2012-10-06 16:10:00
9:24 AM,33.8,33.8,100,30.49,5.0,Calm,Calm,-,N/A,,Scattered Clouds,0,2012-10-06 16:24:00
9:26 AM,33.8,33.8,100,30.49,6.0,Calm,Calm,-,N/A,,Scattered Clouds,0,2012-10-06 16:26:00
9:44 AM,35.6,33.8,93,30.49,9.0,Calm,Calm,-,N/A,,Mostly Cloudy,0,2012-10-06 16:44:00
9:51 AM,35.6,33.8,93,30.49,7.0,Variable,2.3,-,N/A,,Scattered Clouds,0,2012-10-06 16:51:00
10:00 AM,35.6,33.8,93,30.49,7.0,Variable,2.3,-,N/A,,Scattered Clouds,0,2012-10-06 17:00:00
10:05 AM,35.6,35.6,100,30.49,5.0,SSW,3.5,-,N/A,,Scattered Clouds,210,2012-10-06 17:05:00
10:31 AM,37.4,35.6,93,30.49,2.5,Calm,Calm,-,N/A,,Partly Cloudy,0,2012-10-06 17:31:00
10:42 AM,37.4,35.6,93,30.48,3.0,Variable,2.3,-,N/A,,Clear,0,2012-10-06 17:42:00
11:00 AM,39.2,35.6,87,30.48,3.0,Variable,2.3,-,N/A,,Clear,0,2012-10-06 18:00:00
11:08 AM,39.2,37.4,93,30.47,2.2,SSW,3.5,-,N/A,,Clear,210,2012-10-06 18:08:00
11:19 AM,41.0,37.4,87,30.47,3.0,Variable,2.3,-,N/A,,Clear,0,2012-10-06 18:19:00
11:36 AM,41.0,37.4,87,30.45,6.0,Calm,Calm,-,N/A,,Haze,0,2012-10-06 18:36:00
12:00 PM,44.6,37.4,76,30.44,9.0,Variable,3.5,-,N/A,,Clear,0,2012-10-06 19:00:00
1:00 PM,51.8,37.4,58,30.42,9.0,Variable,3.5,-,N/A,,Clear,0,2012-10-06 20:00:00
2:00 PM,55.4,37.4,51,30.38,9.0,Variable,2.3,-,N/A,,Clear,0,2012-10-06 21:00:00
3:00 PM,59.0,37.4,45,30.35,9.0,Variable,2.3,-,N/A,,Clear,0,2012-10-06 22:00:00
4:00 PM,60.8,37.4,42,30.32,9.0,Calm,Calm,-,N/A,,Clear,0,2012-10-06 23:00:00
5:00 PM,60.8,37.4,42,30.29,9.0,South,3.5,-,N/A,,Clear,190,2012-10-07 00:00:00
6:00 PM,55.4,41.0,58,30.27,9.0,Calm,Calm,-,N/A,,Clear,0,2012-10-07 01:00:00
7:00 PM,48.2,41.0,76,30.27,9.0,Calm,Calm,-,N/A,,Clear,0,2012-10-07 02:00:00
8:00 PM,44.6,39.2,81,30.27,9.0,Calm,Calm,-,N/A,,Clear,0,2012-10-07 03:00:00
9:00 PM,42.8,39.2,87,30.27,9.0,Calm,Calm,-,N/A,,Clear,0,2012-10-07 04:00:00
10:00 PM,39.2,37.4,93,30.25,9.0,South,3.5,-,N/A,,Clear,170,2012-10-07 05:00:00
10:59 PM,37.4,35.6,93,30.26,4.0,Calm,Calm,-,N/A,,Clear,0,2012-10-07 05:59:00
11:00 PM,37.4,35.6,93,30.25,3.0,Calm,Calm,-,N/A,,Clear,0,2012-10-07 06:00:00
11:55 PM,37.4,35.6,93,30.25,6.0,Calm,Calm,-,N/A,,Clear,0,2012-10-07 06:55:00